Terminal Aerodrome Forecast
Issued by NWS Raleigh/Durham, NC

Home | Current Version | Previous Version | Text Only | Print | Product List | Glossary On
Versions: 1 2 3 4 5 6 7 8 9 10 11 12 13 14 15 16 17 18 19 20 21 22 23 24 25 26 27 28 29 30 31 32 33 34 35 36 37 38 39 40
000
FTUS42 KRAH 240739 AAA
TAFGSO
TAF AMD
KGSO 240739Z 2408/2506 VRB04KT P6SM SCT008 OVC015
      TEMPO 2409/2411 OVC008
     FM241500 04008KT P6SM SCT025
     FM242300 VRB02KT P6SM FEW040=

USA.gov is the U.S. government's official web portal to all federal, state and local government web resources and services.